sat.trackr.live / text

‹ back to catalog

STARLINK-36345

NORAD 68243 · 2026-054M

PAYLOAD ACTIVE UNKNOWN

§ Identity

Operator
Country
US
Launch date
2026-03-17
Launch site
AFETR
Launch vehicle
Mass (kg)
RCS (m²)

Purposes: comms

External: N2YO · Heavens-Above · Gunter

§ Orbital elements

Epoch: 2026-05-25T03:29:11.533632Z

Period
93.85 min
Inclination
53.1605°
Eccentricity
0.0001378
Mean motion
15.34399260 rev/d
Perigee alt
461.8 km
Apogee alt
463.6 km
Semi-major
6,840.8 km
B*
7.1383e-4
RAAN
294.8428°
Arg perigee
111.6811°
Mean anomaly
248.4338°
Rev number
1,079

§ Raw data

STARLINK-363451 68243U 26054M   26145.14527238  .00023818  00000+0  71383-3 0  99962 68243  53.1605 294.8428 0001378 111.6811 248.4338 15.34399260 10791

JSON: /api/v1/satellites/68243 · /tle

For live sub-satellite position, see the globe view (requires WebGL).

§ Visibility from observer

Set your observer location to see the next 7 days of passes ≥ 10°. The values pass through the URL so the page stays shareable.

No JS? Fill the form by hand. The geolocation button needs JavaScript.